Regional Weather Roundup
Issued by NWS Grand Forks, ND

Home | Current Version | Previous Version | Graphics & Text | Print | Product List | Glossary On
Versions: 1 2 3 4 5 6 7 8 9 10 11 12 13 14 15 16 17 18 19 20 21 22 23 24 25 26 27 28 29 30 31 32 33 34 35 36 37 38 39 40 41 42 43 44 45 46 47 48 49 50
000
ASUS43 KFGF 191531
RWRFGF
PRAIRIE TO PINES  WEATHER ROUNDUP
NATIONAL WEATHER SERVICE EASTERN NORTH DAKOTA/GRAND FORKS ND
1000 AM CDT THU OCT 19 2017

 **SATELLITE DATA USED TO AUGMENT SKY COVER AT AUTOMATED STATIONS**
 *****  WEATHER ACROSS EASTERN NORTH DAKOTA  *****

CITY           SKY/WX    TMP DP  RH WIND       PRES   REMARKS
GRAND FORKS    FAIR      46  30  53 SE13      29.84F
GRAND FRKS AFB FAIR      46  29  51 S10       29.83F
DEVILS LAKE    FAIR      49  33  54 S10       29.78F
FARGO          FAIR      50  32  50 S14       29.88S
WAHPETON ARPT  NOT AVBL
$$

 ***** WEATHER ACROSS CENTRAL AND WESTERN NORTH DAKOTA  *****

CITY           SKY/WX    TMP DP  RH WIND       PRES   REMARKS
BISMARCK       FAIR      48  36  63 SE5       29.81S
MINOT          FAIR      52  30  43 S14       29.71R
JAMESTOWN      FAIR      50  34  54 S14G22    29.81F
MINOT AFB      FAIR      50  30  46 SW13      29.69S
GARRISON         N/A     48  33  56 S12       29.76R
WILLISTON      FAIR      42  32  67 CALM      29.72R
DICKINSON      FAIR      53  33  46 S7        29.77R
HETTINGER      FAIR      52  32  46 W6        29.84R
$$

 *****  OTHER AIRPORT OBSERVATIONS IN OUR AREA  *****

CITY           SKY/WX    TMP DP  RH WIND       PRES   REMARKS
WALHALLA       FAIR     N/A N/A N/A SE8       29.79F
GRAFTON AIRPOR FAIR      48  28  46 S14G20    29.84S
VALLEY CITY AR FAIR      52  34  50 S18       29.85S
CANDO          FAIR      46  34  61 S7        29.78F
CAVALIER APRT  FAIR      45  28  53 SE5       29.81F
GWINNER        SUNNY     59  32  36 SW16G23   29.86F
ROLLA          FAIR      46  27  46 S15       29.74F
 ***** THE ABOVE OBSERVATIONS ARE NON NWS ARE NOT QUALITY
       CONTROLLED AND MAY MIS-REPORT RAIN FOR SNOW...
$$

  *****  WEATHER ACROSS NORTHERN MINNESOTA  *****

CITY           SKY/WX    TMP DP  RH WIND       PRES   REMARKS
FLAG ISLAND    FAIR      45  27  49 CALM      29.87S
WARROAD        FAIR      46  30  53 S6        29.89R
ROSEAU         FAIR      46  32  57 S10       29.88S
HALLOCK        FAIR      48  27  43 SE13      29.83F
THF RVR FALLS  FAIR      48  29  47 S10       29.90S
BAUDETTE       FAIR      44  27  51 S6        29.90F
WASKISH        FAIR      52  28  40 S5        29.93S
CROOKSTON      FAIR      52  30  43 S13       29.87F
STEPHEN NDAWN    N/A     46  28  49 SE12        N/A
GREENBUSH NDAW   N/A     46  28  49 SE8         N/A
$$
  *****  WEATHER ACROSS CENTRAL AND WEST MINNESOTA  *****

CITY           SKY/WX    TMP DP  RH WIND       PRES   REMARKS
FOSSTON        FAIR      54  30  40 SE7       29.90F
BEMIDJI        FAIR      50  30  45 S6        29.94S
PARK RAPIDS    FAIR      47  33  58 SE7       29.96S
ELBOW LAKE     FAIR      56  34  43 S15G22    29.95F
WADENA         FAIR      54  34  47 S10       29.96S
DETROIT LAKES  FAIR      54  32  43 S10       29.93S
MOORHEAD       FAIR      54  30  40 S15G22    29.88F
FERGUS FALLS   FAIR      55  34  44 S14       29.94F
MORRIS MN      FAIR      55  36  47 S15       29.95S
STAPLES        FAIR      54  30  40 S9        29.98S
$$
  *****  WEATHER ELSEWHERE ACROSS MINNESOTA  *****

CITY           SKY/WX    TMP DP  RH WIND       PRES   REMARKS
DULUTH         FAIR      51  29  42 W10       30.00R
INTRNTL FALLS  FAIR      47  23  38 W6        29.92S
ELY            FAIR      48  21  34 W9        29.95R
CLOQUET        FAIR      52  27  37 SW3       30.01S
WHEATON        FAIR      55  34  44 SE10      29.93S
BRAINERD       FAIR      48  33  56 S6        30.01S
HIBBING        FAIR      47  28  47 SW3       29.98R
ALEXANDRIA     FAIR      56  31  38 S13       29.99S
SAINT CLOUD    FAIR      48  38  68 S8        30.04R
MINNEAPOLIS    PTSUNNY   51  35  54 SW3       30.08R
$$

  *****  WEATHER ACROSS SOUTH DAKOTA  *****

CITY           SKY/WX    TMP DP  RH WIND       PRES   REMARKS
SIOUX FALLS    FAIR      56  36  47 S10       30.04S
BROOKINGS      FAIR      51  34  52 S15       30.02R
WATERTOWN      FAIR      53  37  54 S16       29.95F
HURON          FAIR      50  35  56 S10       29.96S
SISSETON         N/A     60  35  39 S24G31    29.88S
ABERDEEN       FAIR      49  34  56 S16       29.90F
MITCHELL       FAIR      51  37  58 S15       29.99F
PIERRE         FAIR      53  37  54 SE12      29.88R
MOBRIDGE       FAIR      52  40  63 S12       29.83R
RAPID CITY     FAIR      59  28  30 SE6       29.88R
$$

  *****  SOME WEATHER IN NEARBY STATES *****

CITY           SKY/WX    TMP DP  RH WIND       PRES   REMARKS
GLASGOW MT     FAIR      52  40  63 SE9       29.68R
GREAT FALLS MT FAIR      60  21  22 S21G28    29.68R
CHEYENNE WY    FAIR      54  21  27 W9        30.09S
SCOTTSBLUFF NE FAIR      46  32  58 SE5       30.02S
OMAHA NE       FAIR      59  47  64 SE9       30.09R
DES MOINES IA  PTSUNNY   59  34  39 SE10      30.13R
DAVENPORT IA   FAIR      60  41  49 E12       30.19R
CHICAGO IL     PTSUNNY   62  30  29 NE7       30.18R
EAU CLAIRE WI  FAIR      50  33  52 S3        30.09S
LA CROSSE WI   FAIR      52  41  66 SE8       30.14R
$$

  *****  SOME NATIONAL WEATHER *****

CITY           SKY/WX    TMP DP  RH WIND       PRES   REMARKS
LA GUARDIA NY  FAIR      65  45  48 SW10      30.23F
RALEIGH NC     FAIR      63  54  72 CALM      30.33S
ATLANTA GA     FAIR      62  42  47 E8        30.34R
NEW ORLEANS LA FAIR      74  66  76 NE6       30.19R
OKLAHOMA CITY  PTSUNNY   60  48  64 S13       30.15R
ALBUQUERQUE NM PTSUNNY   56  29  35 NE3       30.17R
SALT LAKE CITY PTSUNNY   48  33  56 SE3       30.01R
LOS ANGELES CA CLOUDY    68  62  81 E3        29.91R
BOISE ID       FAIR      49  27  42 SE13      29.84S
SEATTLE WA     LGT RAIN  51  50  96 S10       29.57F
$$

*** WEATHER ACROSS MANITOBA...SASKATCHEWAN AND ONTARIO ***
                ***ONTARIO***

CITY           SKY/WX    TMP DP  RH WIND       PRES   REMARKS
GERALDTON      PTSUNNY   50  30  46 NW17G29   29.67R
THUNDER BAY    PTSUNNY   52  23  32 W13G23    29.85R
SIOUX LOOKOUT  CLOUDY    45  28  53 W13       29.82R
TORONTO        MOSUNNY   64  48  55 W18       30.00S
BIG TROUT LK   CLOUDY    37  36  93 NW21G28   29.56R
PICKLE LAKE    PTSUNNY   39  27  60 W23       29.70R
DRYDEN         MOSUNNY   45  25  45 W13G18    29.85R
KENORA         PTSUNNY   45  21  39 W3        29.85S
$$
                *** MANITOBA***

CITY           SKY/WX    TMP DP  RH WIND       PRES   REMARKS
BRANDON        CLOUDY    39  25  56 E8        29.71S
DAUPHIN        SUNNY     45  19  36 SE8       29.68F
ISLAND LAKE    PTSUNNY   36  30  80 W13       29.73R
PILOT MOUND      N/A     46  28  49 S10         N/A
THE PAS        PTSUNNY   30  27  86 E8        29.68F WCI  23
THOMPSON       PTSUNNY   32  30  93 NE9       29.73F WCI  24
WINNIPEG       MOSUNNY   43  23  45 S9        29.81S
LYNN LAKE      CLOUDY    28  28 100 E10       29.69S WCI  19
CHURCHILL      FLURRIES  34  30  86 NE16G22   29.75R WCI  23
GILLAM         CLOUDY    34  32  93 N10       29.71R
$$
                ***SASKATCHEWAN***

CITY           SKY/WX    TMP DP  RH WIND       PRES   REMARKS
ESTEVAN        CLOUDY    48  30  49 SW14      29.66R
KINDERSLEY     MOCLDY    57  34  41 SW28G38   29.41R
LLOYDMINSTER   MOCLDY    36  28  75 S8        29.37R
PRINCE ALBERT  PTSUNNY   36  23  60 E10       29.47F
REGINA         CLOUDY    45  28  53 SE9       29.58R
YORKTON        SUNNY     41  23  48 S13G18    29.57F
N. BATTLEFORD  CLEAR     39  27  60 SE10      29.41R
LA RONGE       MOCLDY    34  28  80 SE17G25   29.48F WCI  23
SASKATOON      PTSUNNY   48  34  57 S9        29.44R
SWIFT CURRENT  MOSUNNY   57  30  35 SW25G32   29.51S
$$
NOTE: THESE ARE AUTOMATED STATIONS WITH LIMITED QUALITY CONTROL
      "FAIR" INDICATES FEW OR NO CLOUDS BELOW 12,000 FEET WITH NO
      SIGNIFICANT WEATHER AND/OR OBSTRUCTIONS TO VISIBILITY.
      SKY/WX - SKY CONDITION AND SIGNIFICANT WEATHER.
      TMP - AIR TEMPERATURE.    DP   - DEWPOINT TEMPERATURE.
      RH  - RELATIVE HUMIDITY.  PRES - PRESSURE.
      HX  - HEAT INDEX.         WCI  - WIND CHILL INDEX.
$



USA.gov is the U.S. government's official web portal to all federal, state and local government web resources and services.